Theta_e
351 348 346 350 347 346 345 347 352 351 354 352 351 351 354 355 352 353 349 345 346 350
352 351 349 350 352 347 351 347 347 349 350 352 351 352 353 356 351 353 353 346 354 352
351 351 351 350 349 348 347 346 344 345 349 351 352 350 347 355 353 351 351 347 349 353
349 350 349 347 348 347 345 344 344 345 347 348 349 350 350 347 349 348 348 350 349 349
349 350 347 346 346 347 345 345 343 344 346 345 344 345 343 344 345 342 343 343 345 344
348 347 347 346 346 346 346 344 343 343 342 341 342 341 341 339 336 333 332 336 337 338
349 349 344 345 346 345 345 344 343 342 343 341 340 339 338 337 333 329 328 326 327 326
348 349 345 345 343 343 344 342 342 341 340 339 337 334 338 335 332 329 328 329 328 326
348 348 344 345 341 341 340 340 340 338 336 336 331 320 323 333 335 334 331 331 331 329
348 347 344 345 341 339 337 339 337 337 335 333 330 317 318 327 334 332 331 331 331 329
349 346 345 343 338 336 336 335 333 334 334 330 322 314 314 319 333 331 330 329 327 326
349 347 345 341 337 337 334 333 334 333 332 331 326 311 312 321 331 328 327 323 319 324
346 342 342 341 338 336 335 333 331 331 328 322 327 308 309 314 327 326 322 322 318 307
341 339 340 338 339 335 332 331 329 327 326 324 318 318 306 308 328 324 323 321 316 312
Wind_Speed
2 2 4 6 6 7 6 8 10 10 10 7 4 4 6 4 5 8 9 10 6 6
4 5 5 6 7 7 8 8 11 11 10 8 5 4 5 4 6 7 7 10 8 8
5 4 5 4 6 9 8 9 9 10 9 9 9 7 7 3 4 5 3 4 8 7
4 6 5 3 7 8 8 9 9 8 9 9 9 9 8 7 8 6 2 3 5 6
4 9 4 5 6 8 8 7 8 7 8 9 11 11 9 10 10 10 9 9 9 9
5 9 5 4 5 6 8 9 8 7 8 8 8 10 11 11 12 12 11 12 11 9
5 7 6 3 4 6 8 9 8 6 7 8 9 10 10 11 11 12 11 10 11 10
6 7 5 3 6 6 7 6 8 7 8 8 9 9 9 10 10 10 10 10 11 10
7 7 5 5 5 6 5 7 7 7 8 9 9 12 12 7 8 8 9 9 10 11
6 8 5 6 7 6 5 6 6 6 8 9 9 13 12 10 8 8 8 8 7 9
8 9 8 6 7 7 5 5 5 5 7 8 7 11 13 17 9 9 10 10 10 10
5 10 9 8 8 7 6 5 5 5 6 7 7 10 12 12 7 8 10 10 13 8
4 9 10 8 7 8 6 6 5 6 7 6 6 12 14 11 4 5 7 8 10 15
2 6 4 6 5 8 6 7 7 7 6 7 10 9 12 16 5 1 3 5 7 7
Wind_Direction
255 64 43 56 355 14 6 352 354 341 333 324 302 256 233 235 221 212 209 213 213 238
121 56 47 28 348 14 25 350 359 341 339 335 336 311 231 215 222 209 199 214 222 229
119 72 47 39 31 48 28 11 3 351 356 21 38 43 355 283 203 191 204 192 231 227
121 100 50 40 41 52 38 21 17 17 12 26 36 38 63 71 41 58 80 187 227 226
146 90 69 35 49 60 50 40 23 17 32 36 49 48 48 59 62 58 48 39 41 31
129 98 72 47 53 63 64 59 47 40 38 34 51 61 61 66 63 58 49 54 53 48
116 107 96 70 76 55 64 58 53 30 54 68 57 60 61 69 71 69 65 57 56 49
131 109 121 104 74 73 62 60 60 41 47 41 55 33 68 81 87 88 82 74 71 66
153 129 133 115 108 75 71 63 57 60 51 52 56 358 11 68 83 79 78 86 102 112
170 129 159 127 106 101 83 85 79 70 69 65 64 4 358 345 68 77 77 75 81 86
185 145 160 147 128 126 120 104 83 82 83 79 63 6 355 344 71 76 73 73 75 73
183 168 170 166 152 144 140 129 119 109 92 89 77 11 1 340 90 77 69 65 31 66
358 132 166 167 145 145 151 143 131 93 68 79 85 28 1 354 123 112 103 100 80 47
84 154 158 143 147 145 163 137 119 113 89 64 26 44 9 7 11 49 120 101 90 68